Погода в Горине

Россия / Хабаровский край     51°11′53″N   136°39′19″E
темп.,
°C
ветер,
м/с
пор.,
м/с
влажн.,
%
обл.,
%
осадки,
мм/ч
давл.,
гПа
погр.,
м
13 июня, вс
вс1301:00+10ссз51172100 0.0 1009772
04:00+9ссз51178100 0.0 1010622
07:00+8сз4985100 0.1 1011633
10:00+10ссз576990 0.1 1012792
13:00+18с584432 0.0 10101764
16:00+18ссв574576 0.0 10101769
19:00+15всв355698 0.0 1011698
22:00+7с22812 0.0 101312
14 июня, пн
пн1401:00+5сз22860 0.0 101417
04:00+4сз11870 0.0 101510
07:00+9ссз11663 0.0 1014174
10:00+16ссв22440 0.0 1013794
13:00+21в223069 0.0 10121212
16:00+22юв11315 0.0 10101139
19:00+21юв114792 0.0 100982
22:00+13ююв22766 0.0 101012
15 июня, вт
вт1501:00+11ю12855 0.0 101010
04:00+9ю118939 0.0 100911
07:00+14ююв257632 0.0 1009213
10:00+21ююв455281 0.0 1008750
13:00+26ююв553629 0.0 10061159
16:00+27ююв553735 0.0 10041282
19:00+23юв51154100 0.0 1004458
22:00+17ююв3678100 0.0 1004113
16 июня, ср
ср1601:00+14ююв339214 0.0 100564
04:00+13ююв239618 0.0 100560
07:00+16ююв348191 0.0 1005187
10:00+24ююв335211 0.0 1005710
13:00+29ююв3437100 0.0 10041482
16:00+30ююв4536100 0.0 10021885
19:00+26юв4957100 0.0 1002423
22:00+20ююв3578100 0.0 100376
17 июня, чт
чт1701:00+17ююв359185 0.0 100386
04:00+16ююв23976 0.0 100454
07:00+19ююв228785 0.0 1005196
10:00+25юв226288 0.0 1004752
13:00+29юв3447100 0.0 10021687
16:00+30юв443896 0.0 10002089
19:00+27юв2452100 0.0 1000118
22:00+20всв117265 0.0 100111